Погода в Кюсюре

Погода в Кюсюре : погода сейчас, прогноз погоды и архив. Всё, что Вы хотите узнать о погоде в Кюсюре!

Хотите узнать прогноз погоды в Кюсюре? Тогда Вам сюда: Погода в Кюсюре

Поиск расширенной информации на нашем сайте:

Другие новости

Новости СМИ2

Главная страница сайта

Новости сайта

03.07.2017

Напоминаем, что на нашем специализированном сайте Метеоцентр.Азия вы можете получить высокодетализированные автоматические прогнозы погоды по пунктам России, СНГ и мира в авиационном формате (включающие направление и скорость ветра, видимость, явления погоды, количество и форму облачности, нижнюю и верхнюю границу облачности).


Погода в Кюсюре - сегодня

Время (UTC), дата Ветер
(°,м/с) 
Видим.   Явления Облачность Т
(°С)
Тd
(°С)
f(%) Тe
(°С)
Pmin
(гПа)
dP
(гПа)
Po
(мм)
O2
(г/м3)
Тmin Tmax R s Состояние
почвы
03 17.02.18 210 (ЮЗ) 10 км  слаб. снег  10/0 средняя, верхняя 
[Ac trans|Cs]
-31.2 -33.6 79 -35  1020.7  -0.7  762  349           
06 17.02.18 тихо ()   10 км  слаб. снег  10/0 средняя, верхняя 
[Ac trans|Cs]
-30.8 -33.2 79 -31  1020.6  -0.1  762  348           
09 17.02.18 тихо ()   10 км  слаб. снег  10/0 средняя, верхняя 
[Ac trans|Cs]
-32.2 -34.6 79 -32  1021.5  0.9  763  350           
15 17.02.18 тихо ()   4000 м  слаб. снег  10/0 средняя 
[As op]
-30.2 -32.6 80 -30  1022.4  0.3  763  348           
18 17.02.18 тихо ()   4000 м  слаб. снег  10/0 средняя 
[As op]
-29.2 -31.6 80 -29  1022.5  0.1  763  346           
21 17.02.18 тихо ()   10 км  слаб. снег  10/0 средняя 
[As op]
-28.4 -30.8 80 -28  1022.7  0.2  764  345           
03 18.02.18 тихо ()   20000 м    3/0 
-30 -32.4 80 -30  1023  0.2  764  348           
06 18.02.18 тихо ()   20000 м    3/0 средняя 
[Ac trans]
-30.4 -33.4 75 -30  1023.1  0.1  764  348           
09 18.02.18 тихо ()   20000 м    3/0 средняя 
[Ac trans]
-33.4 -36.3 75 -33  1023.4  0.2  764  353           
12 18.02.18 тихо ()   20000 м    3/0 средняя 
[Ac trans]
-33.5 -35.9 79 -34  1023.4  764  353    -28.3       
15 18.02.18 200 (Ю) 20000 м    3/0 средняя 
[Ac trans]
-35.2 -37.4 80 -36  1023.2  -0.2  764  355           
18 18.02.18 тихо ()   20000 м    3/0 средняя 
[Ac trans]
-39 -41.2 80 -39  1022.6  -0.7  763  361           
21 18.02.18 тихо ()   20000 м    3/0 средняя 
[Ac trans]
-39.4 -41.7 79 -39  1022.3  -0.3  763  361           
00 19.02.18 тихо ()   20000 м    3/0 средняя 
[As op]
-39.8 -42.8 73 -40  1021.6  -0.7  763  362  -40.5      35  неравномерный
сухой снег
100% 
03 19.02.18 тихо ()   20000 м    4/0 средняя 
[Ac trans]
-37.8 -40.5 76 -38  1020.3  -1.3  762  358  -40.8         
06 19.02.18 тихо ()   20000 м    4/0 средняя 
[Ac trans]
-37.9 -40.9 73 -38  1019.7  -0.6  761  358           
09 19.02.18 тихо ()   20000 м    4/0 средняя 
[Ac trans]
-38 -40.3 79 -38  1019.7  761  358           
12 19.02.18 тихо ()   20000 м    4/0 средняя 
[Ac trans]
-38 -40.3 79 -38  1019.4  -0.3  761  358    -36.8       
15 19.02.18 200 (Ю) 10 км  слаб. снег  10/0 средняя 
[As op]
-35.5 -37.7 80 -42  1018.4  -0.9  760  354           
18 19.02.18 200 (Ю) 10 км  слаб. снег  10/0 средняя 
[As op]
-35.8 -38.1 79 -42  1017.4  -1  760  354           
21 19.02.18 200 (Ю) 10 км  слаб. снег  10/0 средняя 
[As op]
-33.4 -35.6 81 -37  1016  -1.4  758  350           
03 20.02.18 200 (Ю) 10 км  слаб. снег  10/0 средняя 
[As op]
-30.6 -33.6 75 -36  1013.4  -1.3  757  345           
06 20.02.18 200 (Ю) 4000 м  слаб. снег  10/0 средняя 
[As op]
-29.7 -32.8 74 -38  1012.3  -1.1  756  344           
09 20.02.18 200 (Ю) 10 км  слаб. снег  10/0 средняя 
[As op]
-28 -30.5 79 -36  1009.3  -2.9  754  340           
21 20.02.18 190 (Ю) 10 км  слаб. снег  10/0 средняя 
[As op]
-26.8 -30 74 -34  1007.2  -0.4  752  338           
Время (UTC), дата Ветер
(°,м/с) 
Видим.   Явления Облачность Т
(°С)
Тd
(°С)
f(%) Тe
(°С)
Pmin
(гПа)
dP
(гПа)
Po
(мм)
O2
(г/м3)
Тmin Tmax R s Состояние
почвы

Для получения пояснительной информации подведите курсор к названию столбца.

ПОГОДА в Кюсюре - архив

Всё, что Вы хотите узнать о погоде в Кюсюре - удобно и подробно!

Выберите нужную дату (начиная с 1 января 2015* года) и нажмите кнопку "Найти".
Будут отображены архивные сводки погоды по пункту Кюсюр, начиная с указанной даты.


Отображать данные в формате CSV (для использования в таблицах Excel)


Внимание! Наш архив погоды предназначен исключительно для личного некоммерческого использования в познавательных целях. Если Вам необходимы официальные справки о состоянии погоды (для производственных, юридических, коммерческих и т.п. целей), обращайтесь в органы Росгидромета.

*Примечание: данная дата относится к архиву по метеостанциям СССР (Россия, СНГ, Балтия).
Архив по метеостанциям Зарубежной Европы и Азии (кроме Китая) хранится 10 дней, по другим регионам земного шара (Китай, Африка, Америка, Австралия, Океания) - 1 день.

Кюсюр - район местоположения метеостанции


Название, широта, долгота, высота метеостанции:
Кюсюр 70.7°ш. 127.4°д. 33 м над ур. моря [Российская Федерация]

Дополнительная информация

В oтличие oт бoльшинства пoгoдных сайтoв мы публикуем пoдрoбную метеoинфoрмацию в детальнoм прoфессиoнальнoм фoрмате.

Характеристики температуры и влажнoсти вoздуха измеряются на высoте 2 м в тени вдали oт зданий и деревьев.
Скoрoсть ветра измеряется на высoте 10 м (на урoвне рoста челoвека скoрoсть ветра ниже в 1.5-2 раза). Если метеoстанция нахoдится в гoрoде или в лесу, тo скoрoсть ветра занижена на 2-4 м/с пo сравнению с oткрытым местoм. Скoрoсть ветра над акватoриями крупных рек и oзёр, а также на вершинах хoлмoв на 2-5 м/с выше, чем в oбычных услoвиях.
Атмoсфернoе давление в разных тoчках местнoсти мoжет значительнo oтличаться oт давления на метеoстанции, в зависимoсти oт услoвий рельефа (при пoдъёме на 10 м давление пoнижается примернo на 1 мм рт.ст.).